This is the latest recevied weather packets stored in our database for station/object W2OBX. If no packets are shown the sender has not sent any weather packets the latest 10 day(s).
| Time | Temp. | Humidity | Pressure | Rain* | Wind** | Luminosity | Snow |
|---|---|---|---|---|---|---|---|
| 1778175806 | 12.22° C | 97% | 1014.7 hPa | 0 mm | - | 27 W/m² | - |
| 1778175504 | 12.22° C | 97% | 1014.7 hPa | 0 mm | - | 27 W/m² | - |
| 1778175201 | 12.22° C | 97% | 1014.7 hPa | 0 mm | - | 36 W/m² | - |
| 1778174897 | 12.78° C | 97% | 1014.7 hPa | 0 mm | - | 34 W/m² | - |
| 1778174594 | 12.78° C | 97% | 1014.8 hPa | 0 mm | - | 23 W/m² | - |
| 1778174289 | 12.78° C | 97% | 1014.9 hPa | 0 mm | - | 36 W/m² | - |
| 1778173987 | 12.78° C | 97% | 1014.7 hPa | 0 mm | - | 37 W/m² | - |
| 1778173684 | 12.78° C | 97% | 1014.5 hPa | 0 mm | - | 44 W/m² | - |
| 1778173380 | 12.78° C | 97% | 1014.5 hPa | 0 mm | - | 27 W/m² | - |
| 1778173076 | 12.78° C | 98% | 1014.5 hPa | 0 mm | - | 37 W/m² | - |
| 1778172772 | 13.33° C | 98% | 1014.3 hPa | 0 mm | - | 56 W/m² | - |
| 1778172468 | 12.78° C | 98% | 1014.5 hPa | 0 mm | - | 40 W/m² | - |
| 1778172166 | 13.33° C | 98% | 1014.5 hPa | 0 mm | - | 31 W/m² | - |
| 1778171863 | 13.33° C | 98% | 1014.3 hPa | 0 mm | - | 22 W/m² | - |
| 1778171561 | 13.33° C | 98% | 1014.1 hPa | 0 mm | - | 51 W/m² | - |
| 1778171256 | 13.33° C | 98% | 1014.4 hPa | 0 mm | - | 78 W/m² | - |
| 1778170952 | 13.33° C | 98% | 1014.6 hPa | 0 mm | - | 57 W/m² | - |
| 1778170649 | 12.78° C | 98% | 1014.1 hPa | 0 mm | - | 43 W/m² | - |
| 1778170346 | 12.78° C | 98% | 1014.3 hPa | 0 mm | - | 36 W/m² | - |
| 1778170041 | 12.78° C | 98% | 1014.1 hPa | 0 mm | - | 29 W/m² | - |
| 1778169738 | 13.33° C | 98% | 1014.3 hPa | 0 mm | - | 34 W/m² | - |
| 1778169434 | 13.33° C | 98% | 1014.1 hPa | 0 mm | - | 37 W/m² | - |
| 1778169130 | 13.33° C | 98% | 1014.2 hPa | 0 mm | - | 32 W/m² | - |
| 1778168827 | 13.33° C | 99% | 1014.1 hPa | 0 mm | - | 42 W/m² | - |
| 1778168525 | 12.78° C | 99% | 1014.1 hPa | 0 mm | - | 46 W/m² | - |
* Rain latest hour (hover to see other rain measurements)
** Current wind speed in m/s (hover to see current wind gust speed)